• In Belgium
  • List of Countries
  • For 7 days
  • Water Temperature
  • Satellite Maps
  • Weather Map
  • Weather Widgets
  • user-avatar
    Login

    Hourly Weather Biskira

    Today, 19 August, Saturday

    Time Temperature Precipitation Wind Pressure Humidity
    00:00 +35°C° 0 mm 1 mps 752 mmHg 23%
    01:00 +35°C° 0 mm 1 mps 752 mmHg 24%
    02:00 +34°C° 0 mm 1 mps 752 mmHg 25%
    03:00 +34°C° 0 mm 1 mps 752 mmHg 25%
    04:00 +35°C° 0 mm 2 mps 752 mmHg 25%
    05:00 +35°C° 0 mm 2 mps 752 mmHg 25%
    06:00 +35°C° 0 mm 2 mps 753 mmHg 24%
    07:00 +36°C° 0 mm 2 mps 753 mmHg 22%
    08:00 +37°C° 0 mm 3 mps 753 mmHg 21%
    09:00 +38°C° 0 mm 3 mps 753 mmHg 19%
    10:00 +39°C° 0 mm 3 mps 753 mmHg 18%
    11:00 +42°C° 0 mm 3 mps 752 mmHg 16%
    12:00 +43°C° 0 mm 3 mps 752 mmHg 15%
    13:00 +43°C° 0 mm 3 mps 752 mmHg 14%
    14:00 +44°C° 0 mm 3 mps 751 mmHg 14%
    15:00 +44°C° 0 mm 3 mps 751 mmHg 13%
    16:00 +44°C° 0 mm 3 mps 751 mmHg 13%
    17:00 +44°C° 0 mm 3 mps 751 mmHg 14%
    18:00 +44°C° 0 mm 3 mps 751 mmHg 14%
    19:00 +43°C° 0 mm 3 mps 751 mmHg 15%
    20:00 +41°C° 0 mm 2 mps 751 mmHg 17%
    21:00 +40°C° 0 mm 2 mps 752 mmHg 19%
    22:00 +39°C° 0 mm 2 mps 752 mmHg 21%
    23:00 +38°C° 0 mm 2 mps 752 mmHg 23%

    Tomorrow, 20 August, Sunday

    Time Temperature Precipitation Wind Pressure Humidity
    00:00 +38°C° 0 mm 2 mps 752 mmHg 25%
    01:00 +37°C° 0 mm 2 mps 752 mmHg 26%
    02:00 +37°C° 0 mm 3 mps 752 mmHg 27%
    03:00 +36°C° 0 mm 3 mps 752 mmHg 29%
    04:00 +36°C° 0 mm 3 mps 752 mmHg 29%
    05:00 +36°C° 0 mm 3 mps 752 mmHg 29%
    06:00 +36°C° 0 mm 3 mps 752 mmHg 29%
    07:00 +37°C° 0 mm 4 mps 753 mmHg 27%
    08:00 +38°C° 0 mm 4 mps 753 mmHg 24%
    09:00 +41°C° 0 mm 4 mps 753 mmHg 22%
    10:00 +41°C° 0 mm 4 mps 753 mmHg 20%
    11:00 +42°C° 0 mm 3 mps 752 mmHg 19%
    12:00 +43°C° 0 mm 3 mps 752 mmHg 17%
    13:00 +44°C° 0 mm 3 mps 752 mmHg 16%
    14:00 +44°C° 0 mm 3 mps 751 mmHg 16%
    15:00 +44°C° 0 mm 3 mps 751 mmHg 15%
    16:00 +43°C° 0 mm 2 mps 751 mmHg 16%
    17:00 +43°C° 0 mm 2 mps 751 mmHg 16%
    18:00 +42°C° 0 mm 2 mps 751 mmHg 16%
    19:00 +42°C° 0 mm 3 mps 751 mmHg 19%
    20:00 +41°C° 0 mm 4 mps 752 mmHg 21%
    21:00 +40°C° 0 mm 4 mps 752 mmHg 24%
    22:00 +38°C° 0 mm 4 mps 753 mmHg 26%
    23:00 +37°C° 0 mm 4 mps 753 mmHg 29%

    Day after tomorrow, 21 August, Monday

    Time Temperature Precipitation Wind Pressure Humidity
    00:00 +36°C° 0 mm 4 mps 753 mmHg 31%
    01:00 +36°C° 0 mm 4 mps 753 mmHg 32%
    02:00 +35°C° 0 mm 3 mps 752 mmHg 33%
    03:00 +35°C° 0 mm 3 mps 752 mmHg 34%
    04:00 +34°C° 0 mm 2 mps 752 mmHg 34%
    05:00 +34°C° 0 mm 2 mps 753 mmHg 35%
    06:00 +34°C° 0 mm 2 mps 753 mmHg 35%
    07:00 +35°C° 0 mm 2 mps 753 mmHg 33%
    08:00 +36°C° 0 mm 2 mps 753 mmHg 31%
    09:00 +37°C° 0 mm 3 mps 753 mmHg 29%
    10:00 +38°C° 0 mm 3 mps 753 mmHg 27%
    11:00 +39°C° 0 mm 2 mps 752 mmHg 25%
    12:00 +39°C° 0 mm 2 mps 752 mmHg 23%
    13:00 +40°C° 0 mm 2 mps 751 mmHg 22%
    14:00 +42°C° 0 mm 3 mps 751 mmHg 20%
    15:00 +42°C° 0 mm 3 mps 750 mmHg 19%
    16:00 +42°C° 0 mm 3 mps 750 mmHg 19%
    17:00 +42°C° 0 mm 3 mps 750 mmHg 18%
    18:00 +42°C° 0 mm 3 mps 751 mmHg 18%
    19:00 +40°C° 0 mm 3 mps 751 mmHg 19%
    20:00 +39°C° 0 mm 3 mps 751 mmHg 20%
    21:00 +38°C° 0 mm 4 mps 752 mmHg 20%
    22:00 +37°C° 0 mm 3 mps 752 mmHg 21%
    23:00 +36°C° 0 mm 3 mps 752 mmHg 22%

    22 August, Tuesday

    Time Temperature Precipitation Wind Pressure Humidity
    00:00 +36°C° 0 mm 3 mps 752 mmHg 23%
    01:00 +35°C° 0 mm 3 mps 752 mmHg 26%
    02:00 +34°C° 0 mm 4 mps 752 mmHg 29%
    03:00 +33°C° 0 mm 4 mps 752 mmHg 32%
    04:00 +33°C° 0 mm 4 mps 752 mmHg 36%
    05:00 +32°C° 0 mm 4 mps 752 mmHg 40%
    06:00 +32°C° 0 mm 4 mps 753 mmHg 44%
    07:00 +32°C° 0 mm 4 mps 753 mmHg 42%
    08:00 +33°C° 0 mm 4 mps 753 mmHg 39%
    09:00 +34°C° 0 mm 4 mps 753 mmHg 37%
    10:00 +35°C° 0 mm 4 mps 753 mmHg 35%
    11:00 +36°C° 0 mm 4 mps 752 mmHg 33%
    12:00 +37°C° 0 mm 4 mps 752 mmHg 30%
    13:00 +38°C° 0 mm 3 mps 752 mmHg 29%
    14:00 +38°C° 0 mm 3 mps 751 mmHg 27%
    15:00 +39°C° 0 mm 2 mps 751 mmHg 25%
    16:00 +39°C° 0 mm 2 mps 751 mmHg 25%
    17:00 +39°C° 0 mm 2 mps 751 mmHg 25%
    18:00 +39°C° 0 mm 2 mps 750 mmHg 25%
    19:00 +38°C° 0 mm 2 mps 751 mmHg 26%
    20:00 +37°C° 0 mm 2 mps 751 mmHg 27%
    21:00 +37°C° 0 mm 2 mps 752 mmHg 28%
    22:00 +36°C° 0 mm 2 mps 751 mmHg 29%
    23:00 +36°C° 0 mm 2 mps 751 mmHg 30%

    23 August, Wednesday

    Time Temperature Precipitation Wind Pressure Humidity
    00:00 +35°C° 0 mm 2 mps 751 mmHg 30%
    01:00 +34°C° 0 mm 3 mps 751 mmHg 33%
    02:00 +34°C° 0 mm 4 mps 751 mmHg 35%
    03:00 +33°C° 0 mm 4 mps 751 mmHg 38%
    04:00 +32°C° 0 mm 4 mps 752 mmHg 41%
    05:00 +32°C° 0 mm 4 mps 752 mmHg 44%
    06:00 +30°C° 0 mm 4 mps 753 mmHg 47%
    07:00 +32°C° 0 mm 4 mps 753 mmHg 44%
    08:00 +33°C° 0 mm 4 mps 753 mmHg 41%
    09:00 +34°C° 0 mm 4 mps 753 mmHg 38%
    10:00 +35°C° 0 mm 4 mps 753 mmHg 36%
    11:00 +36°C° 0 mm 4 mps 753 mmHg 33%
    12:00 +37°C° 0 mm 4 mps 752 mmHg 30%
    13:00 +38°C° 0 mm 3 mps 752 mmHg 29%
    14:00 +38°C° 0 mm 3 mps 751 mmHg 27%
    15:00 +39°C° 0 mm 3 mps 751 mmHg 26%
    16:00 +39°C° 0 mm 2 mps 751 mmHg 26%
    17:00 +39°C° 0 mm 2 mps 751 mmHg 25%
    18:00 +38°C° 0 mm 2 mps 751 mmHg 25%
    19:00 +38°C° 0 mm 2 mps 751 mmHg 26%
    20:00 +37°C° 0 mm 2 mps 752 mmHg 27%
    21:00 +37°C° 0 mm 2 mps 752 mmHg 28%
    22:00 +36°C° 0 mm 2 mps 752 mmHg 30%
    23:00 +36°C° 0 mm 3 mps 752 mmHg 31%

    24 August, Thursday

    Time Temperature Precipitation Wind Pressure Humidity
    00:00 +35°C° 0 mm 3 mps 752 mmHg 32%
    01:00 +34°C° 0 mm 4 mps 752 mmHg 37%
    02:00 +33°C° 0 mm 4 mps 752 mmHg 42%
    03:00 +32°C° 0 mm 5 mps 752 mmHg 47%
    04:00 +32°C° 0 mm 5 mps 752 mmHg 48%
    05:00 +30°C° 0 mm 4 mps 753 mmHg 49%
    06:00 +30°C° 0 mm 4 mps 753 mmHg 51%
    07:00 +32°C° 0 mm 4 mps 754 mmHg 46%
    08:00 +33°C° 0 mm 4 mps 754 mmHg 42%
    09:00 +34°C° 0 mm 4 mps 754 mmHg 37%
    10:00 +35°C° 0 mm 4 mps 754 mmHg 34%
    11:00 +36°C° 0 mm 4 mps 753 mmHg 31%
    12:00 +37°C° 0 mm 4 mps 753 mmHg 29%
    13:00 +38°C° 0 mm 4 mps 753 mmHg 27%
    14:00 +38°C° 0 mm 3 mps 752 mmHg 26%
    15:00 +39°C° 0 mm 3 mps 752 mmHg 25%
    16:00 +38°C° 0 mm 3 mps 752 mmHg 25%
    17:00 +38°C° 0 mm 3 mps 752 mmHg 26%
    18:00 +38°C° 0 mm 3 mps 752 mmHg 26%
    19:00 +37°C° 0 mm 3 mps 752 mmHg 27%
    20:00 +37°C° 0 mm 3 mps 752 mmHg 28%
    21:00 +36°C° 0 mm 3 mps 753 mmHg 29%
    22:00 +36°C° 0 mm 3 mps 753 mmHg 31%
    23:00 +35°C° 0 mm 4 mps 753 mmHg 32%
    Show more